Youngstown, OH

4:22 PM EDT on July 21, 2017 (GMT -0400)
Youngstown-Warren Regional

Weather History for KYNG - November, 2012

Change the Weather History Date:

Tuesday, November 13, 2012

  Actual Average Record
Temperature  
Mean Temperature 32 °F 42 °F  
Max Temperature 34 °F 50 °F 71 °F (1989)
Min Temperature 29 °F 35 °F 17 °F (1986)
Degree Days  
Heating Degree Days 33 22  
Month to date heating degree days 319 266  
Since 1 July heating degree days 915 887  
Cooling Degree Days 0 0  
Month to date cooling degree days 0 0  
Year to date cooling degree days 761 544  
Moisture  
Dew Point 24 °F    
Average Humidity 70    
Maximum Humidity 78    
Minimum Humidity 61    
Precipitation  
Precipitation T in 0.11 in 0.64 in (1972)
Month to date precipitation 0.56 1.33  
Year to date precipitation 39.64 34.07  
Snow  
Snow T in 0.10 in - ()
Month to date snowfall T 0.9  
Since 1 July snowfall T 1.7  
Since 1 September snowfall T 1.7  
Snow Depth 0.00 in    
Sea Level Pressure  
Sea Level Pressure 30.45 in    
Wind  
Wind Speed 6 mph (West)    
Max Wind Speed 17 mph    
Max Gust Speed 24 mph    
Visibility 10 miles    
Events Snow    
T = Trace of Precipitation, MM = Missing Value Source: NWS Daily Summary

Daily Weather History Graph

Daily Weather History Graph

Search for Another Location

Airport or City:

Trip Planner

Search our weather history database for the weather conditions in past years. The results will help you decide how hot, cold, wet, or windy it might be!

Date:

Astronomy

Nov. 13, 2012 Rise Set
Actual Time 7:09 AM EST 5:04 PM EST
Civil Twilight 6:39 AM EST 5:34 PM EST
Nautical Twilight 6:06 AM EST 6:07 PM EST
Astronomical Twilight 5:33 AM EST 6:40 PM EST
Moon 6:45 AM EST (11/13) 4:56 PM EST (11/13)
Length of Visible Light 10h 54m
Length of Day
9h 55m
Waning Crescent, 0% of the Moon is Illuminated
Nov 13
Waning Crescent
Nov 13
New
Nov 20
First Quarter
Nov 28
Full
Dec 6
Last Quarter

Hourly Weather History & Observations

Time (EST) Temp. Windchill Dew Point Humidity Pressure Visibility Wind Dir Wind Speed Gust Speed Precip Events Conditions
12:51 AM 33.1 °F 23.0 °F 23.0 °F 66% 30.33 in 10.0 mi WSW 15.0 mph - N/A   Overcast
1:51 AM 33.1 °F 23.4 °F 21.0 °F 61% 30.34 in 10.0 mi West 13.8 mph - N/A   Overcast
2:51 AM 32.0 °F 23.6 °F 21.9 °F 66% 30.34 in 10.0 mi West 10.4 mph - N/A   Overcast
3:51 AM 30.0 °F 22.4 °F 21.0 °F 69% 30.36 in 10.0 mi WSW 8.1 mph - N/A   Scattered Clouds
4:51 AM 30.9 °F 23.5 °F 21.0 °F 67% 30.36 in 10.0 mi WSW 8.1 mph - N/A   Mostly Cloudy
5:51 AM 30.9 °F 25.2 °F 21.0 °F 67% 30.39 in 10.0 mi SW 5.8 mph - N/A   Overcast
6:51 AM 30.0 °F 22.4 °F 21.0 °F 69% 30.40 in 10.0 mi SW 8.1 mph - N/A   Overcast
7:51 AM 30.9 °F 23.5 °F 21.0 °F 67% 30.43 in 10.0 mi SSW 8.1 mph - N/A   Mostly Cloudy
8:51 AM 32.0 °F 24.2 °F 21.9 °F 66% 30.45 in 10.0 mi SW 9.2 mph - N/A   Overcast
9:51 AM 33.1 °F 24.9 °F 21.9 °F 64% 30.46 in 10.0 mi WSW 10.4 mph - N/A   Overcast
10:51 AM 34.0 °F 26.6 °F 21.9 °F 61% 30.47 in 10.0 mi West 9.2 mph - N/A   Overcast
11:51 AM 34.0 °F 26.6 °F 21.9 °F 61% 30.47 in 10.0 mi WSW 9.2 mph - N/A   Overcast
12:51 PM 34.0 °F 26.6 °F 24.1 °F 67% 30.46 in 9.0 mi WNW 9.2 mph - 0.00 in Snow Light Snow
1:51 PM 34.0 °F 28.8 °F 25.0 °F 70% 30.45 in 9.0 mi NW 5.8 mph - 0.00 in Snow Light Snow
2:22 PM 33.8 °F 28.6 °F 24.8 °F 70% 30.43 in 9.0 mi NW 5.8 mph - 0.00 in Snow Light Snow
2:51 PM 34.0 °F 28.8 °F 24.1 °F 67% 30.47 in 9.0 mi WNW 5.8 mph - 0.00 in Snow Light Snow
3:51 PM 33.1 °F 30.0 °F 25.0 °F 72% 30.48 in 9.0 mi NW 3.5 mph - 0.00 in Snow Light Snow
4:51 PM 32.0 °F 26.4 °F 26.1 °F 79% 30.50 in 9.0 mi NW 5.8 mph - 0.00 in Snow Light Snow
5:51 PM 32.0 °F 28.7 °F 25.0 °F 75% 30.50 in 9.0 mi NW 3.5 mph - 0.00 in Snow Light Snow
6:51 PM 32.0 °F 28.7 °F 26.1 °F 79% 30.52 in 9.0 mi NW 3.5 mph - 0.00 in Snow Light Snow
7:35 PM 33.8 °F - 26.6 °F 75% 30.48 in 9.0 mi Calm Calm - 0.00 in Snow Light Snow
7:51 PM 33.1 °F - 27.0 °F 78% 30.53 in 9.0 mi Calm Calm - 0.00 in Snow Light Snow
8:51 PM 33.1 °F - 26.1 °F 75% 30.54 in 9.0 mi Calm Calm - 0.00 in Snow Light Snow
9:51 PM 33.1 °F - 27.0 °F 78% 30.55 in 9.0 mi Calm Calm - 0.00 in Snow Light Snow
10:51 PM 33.1 °F - 27.0 °F 78% 30.56 in 9.0 mi Calm Calm - 0.00 in Snow Light Snow
11:51 PM 33.1 °F - 26.1 °F 75% 30.56 in 9.0 mi Calm Calm - 0.00 in Snow Light Snow